TimeCST,TemperatureF,Dew PointF,Humidity,Sea Level PressureIn,VisibilityMPH,Wind Direction,Wind SpeedMPH,Gust SpeedMPH,PrecipitationIn,Events,Conditions,WindDirDegrees,DateUTC
12:55 AM,40.5,27.9,61,30.24,10.0,SSE,4.6,-,N/A,,Clear,160,2012-11-15 06:55:00
1:55 AM,38.3,27.9,66,30.24,10.0,SE,3.5,-,N/A,,Clear,130,2012-11-15 07:55:00
2:55 AM,37.9,28.2,68,30.25,10.0,Calm,Calm,-,N/A,,Clear,0,2012-11-15 08:55:00
3:55 AM,36.5,28.2,72,30.22,10.0,Calm,Calm,-,N/A,,Clear,0,2012-11-15 09:55:00
4:55 AM,35.6,28.6,76,30.23,10.0,Calm,Calm,-,N/A,,Clear,0,2012-11-15 10:55:00
5:55 AM,34.2,28.4,79,30.25,10.0,ENE,3.5,-,N/A,,Partly Cloudy,70,2012-11-15 11:55:00
6:55 AM,34.7,28.8,79,30.25,10.0,Calm,Calm,-,N/A,,Overcast,0,2012-11-15 12:55:00
7:55 AM,36.5,29.7,76,30.26,10.0,Calm,Calm,-,N/A,,Clear,0,2012-11-15 13:55:00
8:55 AM,41.0,32.2,71,30.28,10.0,SSE,5.8,-,N/A,,Clear,160,2012-11-15 14:55:00
9:55 AM,45.5,32.9,61,30.28,10.0,South,6.9,-,N/A,,Clear,180,2012-11-15 15:55:00
10:55 AM,47.8,33.4,57,30.29,10.0,Calm,Calm,-,N/A,,Clear,0,2012-11-15 16:55:00
11:55 AM,52.7,36.3,54,30.26,10.0,South,8.1,-,N/A,,Clear,170,2012-11-15 17:55:00
1:55 PM,59.5,41.2,51,30.20,10.0,South,9.2,-,N/A,,Clear,180,2012-11-15 19:55:00
3:55 PM,61.7,42.1,49,30.21,10.0,SSE,6.9,-,N/A,,Clear,150,2012-11-15 21:55:00
4:55 PM,59.9,42.6,53,30.23,10.0,SSE,6.9,-,N/A,,Clear,160,2012-11-15 22:55:00
5:55 PM,54.3,40.8,60,30.25,10.0,ESE,8.1,-,N/A,,Clear,120,2012-11-15 23:55:00
6:55 PM,50.4,39.2,66,30.27,10.0,ESE,6.9,-,N/A,,Clear,120,2012-11-16 00:55:00
7:55 PM,50.0,38.1,64,30.30,10.0,Variable,5.8,-,N/A,,Clear,0,2012-11-16 01:55:00
8:55 PM,49.6,38.3,65,30.32,10.0,Variable,5.8,-,N/A,,Mostly Cloudy,0,2012-11-16 02:55:00
9:55 PM,48.2,37.8,67,30.33,10.0,East,5.8,-,N/A,,Mostly Cloudy,100,2012-11-16 03:55:00
10:55 PM,48.4,36.3,63,30.33,10.0,ENE,3.5,-,N/A,,Mostly Cloudy,60,2012-11-16 04:55:00
11:55 PM,49.5,33.6,54,30.34,10.0,ESE,5.8,-,N/A,,Overcast,110,2012-11-16 05:55:00